#�ϑ�����,���ϕ���,���ϕ���,�ő啗��,�ő啗����������,�ő�u�ԕ���,�ő�u�ԕ�����������
#(�N����),(m/s)   ,(16����),(m/s)   ,(16����)        ,(m/s)       ,(16����)            
2012/1/7 16:24,3.3,15,3.3,15,4.2,16
2012/1/7 16:25,3,15,3.2,15,4.4,14
2012/1/7 16:26,3.8,15,3.8,15,6.8,15
2012/1/7 16:27,3.5,15,3.9,15,6.9,15
2012/1/7 16:28,3.2,15,3.4,15,3.8,16
2012/1/7 16:29,3.2,15,3.2,15,5.2,15
2012/1/7 16:30,3,15,3.2,15,3.8,15
2012/1/7 16:31,3,15,3,15,6.3,15
2012/1/7 16:32,3.2,15,3.2,15,7.7,15
2012/1/7 16:33,3.3,15,3.3,15,7.4,15
2012/1/7 16:34,3.6,15,3.6,15,9.7,16
2012/1/7 16:35,3.6,15,3.6,15,5.4,16
2012/1/7 16:36,3.7,16,3.8,15,7.9,16
2012/1/7 16:37,4,16,4,16,7.7,15
2012/1/7 16:38,4,16,4.1,16,5.7,15
2012/1/7 16:39,3.9,16,4,16,3.9,16
2012/1/7 16:40,4,16,4,16,3.8,15
2012/1/7 16:41,4,15,4,16,4.2,15
2012/1/7 16:42,3.7,15,4,16,2.7,14
2012/1/7 16:43,3.6,15,3.7,16,4.1,15
2012/1/7 16:44,3.1,15,3.5,16,2.5,15
2012/1/7 16:45,3,15,3.1,16,4.1,14
2012/1/7 16:46,2.7,15,3,16,3.9,15
2012/1/7 16:47,2.5,15,2.7,16,6.5,15
2012/1/7 16:48,2.6,15,2.6,16,6.3,16
2012/1/7 16:49,2.8,15,2.8,16,5.7,16
2012/1/7 16:50,2.9,15,2.9,16,4.9,15
2012/1/7 16:51,2.9,15,2.9,15,6.2,15
2012/1/7 16:52,3.1,15,3.1,15,7.5,15
2012/1/7 16:53,3.1,15,3.1,15,3.6,16
2012/1/7 16:54,3.4,15,3.4,15,7.7,16
2012/1/7 16:55,3.5,15,3.5,15,9.1,15
2012/1/7 16:56,3.8,15,3.8,15,7.4,15
2012/1/7 16:57,3.7,15,3.9,15,4.7,14
2012/1/7 16:58,3.7,15,3.7,15,5.6,16
2012/1/7 16:59,3.6,15,3.7,15,4.3,15
2012/1/7 17:00,3.6,15,3.7,15,3.9,14
2012/1/7 17:01,3.6,15,3.6,15,4.5,15
2012/1/7 17:02,3.4,15,3.6,15,4.4,16
2012/1/7 17:03,3.4,15,3.4,15,4.3,16
2012/1/7 17:04,3.3,15,3.4,15,3.9,15
2012/1/7 17:05,3,15,3.3,15,4.2,16
2012/1/7 17:06,2.8,15,3,15,3.1,16
2012/1/7 17:07,2.7,15,2.8,15,3.7,1
2012/1/7 17:08,2.5,15,2.7,15,3.3,16
2012/1/7 17:09,2.4,15,2.5,15,2.7,15
2012/1/7 17:10,2.3,15,2.4,15,3.2,16
2012/1/7 17:11,2.1,16,2.3,15,2.4,16
2012/1/7 17:12,2.1,15,2.1,15,2.4,1
2012/1/7 17:13,2,15,2.1,15,3.2,16
2012/1/7 17:14,1.8,15,1.9,15,2.5,15
2012/1/7 17:15,1.8,15,1.8,15,2.2,14
2012/1/7 17:16,1.7,15,1.8,15,2.6,16
2012/1/7 17:17,1.6,15,1.7,15,2.4,14
2012/1/7 17:18,1.7,15,1.7,15,3.3,15
2012/1/7 17:19,1.7,15,1.7,15,3.2,15
2012/1/7 17:20,1.6,15,1.7,15,2.5,16
2012/1/7 17:21,1.5,15,1.6,15,1.8,15
2012/1/7 17:22,1.6,15,1.6,15,2.5,14
2012/1/7 17:23,1.5,15,1.6,15,2.5,15
2012/1/7 17:24,1.5,15,1.6,15,1.5,16
2012/1/7 17:25,1.4,15,1.5,15,1.5,14
2012/1/7 17:26,1.4,15,1.4,15,1.5,14
2012/1/7 17:27,1.4,15,1.4,15,1.8,12
2012/1/7 17:28,1.3,14,1.4,15,2,11
2012/1/7 17:29,1.2,14,1.3,15,2.2,15
2012/1/7 17:30,1.2,14,1.2,15,1.5,13
2012/1/7 17:31,1.2,14,1.2,15,2.1,1
2012/1/7 17:32,1.3,14,1.3,15,3.5,15
2012/1/7 17:33,1.4,14,1.4,15,3.5,16
2012/1/7 17:34,1.4,14,1.4,15,2.7,15
2012/1/7 17:35,1.6,14,1.6,14,3.8,2
2012/1/7 17:36,1.7,14,1.7,14,4.8,16
2012/1/7 17:37,1.7,15,1.7,14,4.2,16
2012/1/7 17:38,1.8,15,1.8,15,4.2,16
2012/1/7 17:39,1.9,15,1.9,15,4.4,16
2012/1/7 17:40,2,16,2,15,3.3,16
2012/1/7 17:41,2.1,15,2.1,16,3.7,15
2012/1/7 17:42,2.2,16,2.2,15,4.2,16
2012/1/7 17:43,2.2,15,2.2,15,4.4,12
2012/1/7 17:44,2.4,15,2.4,15,6.5,16
2012/1/7 17:45,2.5,15,2.5,15,4.9,16
2012/1/7 17:46,2.6,15,2.6,15,5.4,15
2012/1/7 17:47,2.9,15,2.9,15,6.4,16
2012/1/7 17:48,3,15,3,15,5.7,16
2012/1/7 17:49,3.1,15,3.1,15,4.9,15
2012/1/7 17:50,3.3,15,3.3,15,7.5,15
2012/1/7 17:51,3.5,15,3.5,15,6.4,15
2012/1/7 17:52,3.7,15,3.7,15,7.6,16
2012/1/7 17:53,4,15,4,15,8.1,16
2012/1/7 17:54,4.1,15,4.1,15,7.2,14
2012/1/7 17:55,4.1,15,4.2,15,5,16
2012/1/7 17:56,4.2,15,4.2,15,5.5,15
2012/1/7 17:57,4.1,15,4.2,15,3.7,15
2012/1/7 17:58,4,14,4,15,4.7,11
2012/1/7 17:59,3.9,14,4,15,3.7,14
2012/1/7 18:00,3.7,14,3.9,15,3.5,14
2012/1/7 18:01,3.5,14,3.7,15,3.2,13
2012/1/7 18:02,3.1,14,3.4,15,3.6,12
2012/1/7 18:03,2.8,14,3.1,15,3,16
2012/1/7 18:04,2.7,14,2.8,15,4.9,16
2012/1/7 18:05,2.7,14,2.7,15,5.7,15
2012/1/7 18:06,2.6,14,2.7,15,5.2,16
2012/1/7 18:07,2.7,14,2.7,15,6.1,15
2012/1/7 18:08,2.7,14,2.7,14,5.6,16
2012/1/7 18:09,2.8,14,2.8,14,4.9,15
2012/1/7 18:10,2.8,15,2.8,14,3.5,15
2012/1/7 18:11,2.8,15,2.8,14,3.7,16
2012/1/7 18:12,2.8,15,2.8,14,3.8,1
2012/1/7 18:13,2.8,15,2.8,14,2.5,16
2012/1/7 18:14,2.7,15,2.8,14,3.7,16
2012/1/7 18:15,2.5,15,2.6,14,3.3,15
2012/1/7 18:16,2.4,15,2.5,14,3.1,14
2012/1/7 18:17,2.2,15,2.4,14,3,15
2012/1/7 18:18,2,15,2.2,14,2.5,15
2012/1/7 18:19,1.8,15,2,14,1.8,16
2012/1/7 18:20,1.7,15,1.8,15,2.9,15
2012/1/7 18:21,1.6,15,1.7,15,4.2,15
2012/1/7 18:22,1.7,15,1.7,15,4.2,16
2012/1/7 18:23,2,15,2,15,6.2,14
2012/1/7 18:24,2.1,15,2.1,15,6.5,14
2012/1/7 18:25,2.3,15,2.3,15,7.4,15
2012/1/7 18:26,2.5,15,2.5,15,5.8,15
2012/1/7 18:27,2.5,15,2.5,15,3.2,15
2012/1/7 18:28,2.6,15,2.6,15,4.2,15
2012/1/7 18:29,2.7,15,2.7,15,4.2,16
2012/1/7 18:30,2.9,15,2.9,15,3.2,15
2012/1/7 18:31,2.9,15,2.9,15,3.8,13
2012/1/7 18:32,2.9,15,2.9,15,4.4,12
2012/1/7 18:33,2.8,14,2.9,15,4.7,12
2012/1/7 18:34,2.5,14,2.7,15,2,9
2012/1/7 18:35,2.4,14,2.5,15,3,12
2012/1/7 18:36,2.2,13,2.3,15,3,12
2012/1/7 18:37,2.2,13,2.2,15,2.6,13
2012/1/7 18:38,2.2,13,2.2,15,2.5,11
2012/1/7 18:39,2.2,12,2.2,15,2.7,13
2012/1/7 18:40,2,12,2.2,15,2.2,12
2012/1/7 18:41,1.8,12,2,15,1.3,14
2012/1/7 18:42,1.6,12,1.8,15,1.4,14
2012/1/7 18:43,1.5,12,1.6,14,3.1,15
2012/1/7 18:44,1.6,13,1.6,14,2.4,15
2012/1/7 18:45,1.5,13,1.6,14,2.4,15
2012/1/7 18:46,1.4,14,1.5,13,0.9,2
2012/1/7 18:47,1.2,14,1.4,13,1.4,11
2012/1/7 18:48,1.1,14,1.2,13,1.1,12
2012/1/7 18:49,1,14,1.1,12,1.4,14
2012/1/7 18:50,1,14,1,12,2.4,14
2012/1/7 18:51,1.1,14,1.1,12,2.2,12
2012/1/7 18:52,1.2,14,1.2,12,2,12
2012/1/7 18:53,1,14,1.2,13,0.8,12
2012/1/7 18:54,0.9,14,1,13,0.9,12
2012/1/7 18:55,0.9,13,0.9,13,3,11
2012/1/7 18:56,1,13,1,14,1.9,14
2012/1/7 18:57,1,13,1,14,1.1,14
2012/1/7 18:58,1.1,13,1.1,14,2.4,13
2012/1/7 18:59,1.2,13,1.2,14,3.1,14
2012/1/7 19:00,1.1,14,1.2,14,1.4,1
2012/1/7 19:01,1.1,14,1.1,14,3,16
2012/1/7 19:02,1.1,14,1.1,14,2.1,1
2012/1/7 19:03,1.2,14,1.2,13,1.6,14
2012/1/7 19:04,1.2,14,1.2,13,0.9,14
2012/1/7 19:05,1.1,14,1.2,13,2.6,16
2012/1/7 19:06,1.2,15,1.2,13,4.3,1
2012/1/7 19:07,1.5,15,1.5,15,4.2,16
2012/1/7 19:08,1.5,15,1.5,15,2.9,15
2012/1/7 19:09,1.3,16,1.4,15,0.6,4
2012/1/7 19:10,1.3,15,1.3,15,1.9,15
2012/1/7 19:11,1.2,15,1.3,15,2.7,15
2012/1/7 19:12,1.3,15,1.3,15,3.7,14
2012/1/7 19:13,1.5,15,1.5,15,5.6,16
2012/1/7 19:14,1.8,16,1.8,16,6.1,16
2012/1/7 19:15,2,16,2,16,4.2,16
2012/1/7 19:16,1.9,16,2,16,3.2,15
2012/1/7 19:17,1.7,16,1.9,16,1.9,1
2012/1/7 19:18,1.6,16,1.7,16,0.5,13
2012/1/7 19:19,1.6,15,1.6,16,1.8,8
2012/1/7 19:20,1.7,15,1.7,16,3.6,11
2012/1/7 19:21,1.7,15,1.7,16,2.4,11
2012/1/7 19:22,1.6,14,1.7,16,1,11
2012/1/7 19:23,1.4,14,1.6,16,2.2,15
2012/1/7 19:24,1.2,14,1.4,16,1.1,11
2012/1/7 19:25,1,13,1.1,16,1.3,12
2012/1/7 19:26,0.9,14,0.9,16,1.9,15
2012/1/7 19:27,1,13,1,16,2.2,13
2012/1/7 19:28,1,13,1,15,1.3,15
2012/1/7 19:29,1,13,1,15,1.4,14
2012/1/7 19:30,0.9,13,1,15,1.5,8
2012/1/7 19:31,0.9,14,0.9,15,2,11
2012/1/7 19:32,0.9,14,0.9,14,1.6,14
2012/1/7 19:33,0.8,14,0.9,14,1,2
2012/1/7 19:34,0.8,13,0.8,14,0.8,6
2012/1/7 19:35,0.7,13,0.8,13,1,9
2012/1/7 19:36,0.8,12,0.8,13,1.9,10
2012/1/7 19:37,0.7,12,0.8,13,1.6,14
2012/1/7 19:38,0.9,12,0.9,13,4.5,15
2012/1/7 19:39,1,12,1,13,3,16
2012/1/7 19:40,1.1,13,1.1,12,3.7,14
2012/1/7 19:41,1.3,13,1.3,13,3.8,15
2012/1/7 19:42,1.3,13,1.3,13,2.5,14
2012/1/7 19:43,1.6,13,1.6,13,5.2,12
2012/1/7 19:44,1.8,13,1.8,13,3.9,12
2012/1/7 19:45,1.9,13,1.9,13,2.9,11
2012/1/7 19:46,2,13,2,13,3.6,12
2012/1/7 19:47,2.2,13,2.2,13,3.8,13
2012/1/7 19:48,2.1,13,2.1,13,2.7,13
2012/1/7 19:49,2,13,2.1,13,1.9,12
2012/1/7 19:50,1.9,13,2,13,1.9,13
2012/1/7 19:51,1.8,13,1.9,13,2,11
2012/1/7 19:52,1.8,13,1.8,13,1.8,12
2012/1/7 19:53,1.6,13,1.8,13,2.5,12
2012/1/7 19:54,1.5,13,1.6,13,2.9,12
2012/1/7 19:55,1.5,12,1.5,13,2.4,9
2012/1/7 19:56,1.4,12,1.5,13,2.2,9
2012/1/7 19:57,1.3,13,1.4,13,2.5,15
2012/1/7 19:58,1.2,12,1.3,13,2.4,13
2012/1/7 19:59,1.3,12,1.3,13,2.7,12
2012/1/7 20:00,1.4,12,1.4,13,1.9,11
2012/1/7 20:01,1.4,12,1.4,13,2.5,9
2012/1/7 20:02,1.4,12,1.4,13,1.6,10
2012/1/7 20:03,1.4,11,1.4,13,2,12
2012/1/7 20:04,1.3,12,1.4,13,1.9,13
2012/1/7 20:05,1.3,12,1.3,12,1.5,12
2012/1/7 20:06,1.3,12,1.3,12,1.6,12
2012/1/7 20:07,1.3,12,1.3,12,1.8,11
2012/1/7 20:08,1.3,12,1.3,12,1.4,11
2012/1/7 20:09,1.2,12,1.3,12,1.6,12
2012/1/7 20:10,1.2,12,1.2,12,3.1,11
2012/1/7 20:11,1.3,12,1.3,12,3.9,8
2012/1/7 20:12,1.3,12,1.3,12,1.8,11
2012/1/7 20:13,1.2,12,1.3,11,0.9,10
2012/1/7 20:14,1.2,12,1.2,12,2.6,12
2012/1/7 20:15,1.3,11,1.3,12,2.6,9
2012/1/7 20:16,1.3,11,1.4,11,1.9,13
2012/1/7 20:17,1.4,12,1.4,11,4.7,15
2012/1/7 20:18,1.7,12,1.7,12,5.6,16
2012/1/7 20:19,1.8,12,1.8,12,3.9,14
2012/1/7 20:20,1.9,13,1.9,12,2.9,15
2012/1/7 20:21,1.8,13,1.9,12,2.5,13
2012/1/7 20:22,1.8,13,1.8,12,2.4,15
2012/1/7 20:23,1.9,14,1.9,12,2.4,16
2012/1/7 20:24,1.9,14,1.9,12,2.1,14
2012/1/7 20:25,1.8,14,1.9,12,1,1
2012/1/7 20:26,1.9,14,1.9,12,4.3,14
2012/1/7 20:27,1.9,14,2,14,4.1,15
2012/1/7 20:28,1.7,14,1.9,14,2,13
2012/1/7 20:29,1.5,14,1.6,14,2.2,15
2012/1/7 20:30,1.5,14,1.5,14,2.2,14
2012/1/7 20:31,1.3,14,1.4,14,0.9,16
2012/1/7 20:32,1.4,14,1.4,14,3.2,16
2012/1/7 20:33,1.4,14,1.4,14,3.6,16
2012/1/7 20:34,1.5,14,1.5,14,3.2,15
2012/1/7 20:35,1.6,14,1.6,14,2.2,15
2012/1/7 20:36,1.4,14,1.6,14,1.8,16
2012/1/7 20:37,1.3,14,1.4,14,1.3,13
2012/1/7 20:38,1.2,15,1.3,14,0.9,14
2012/1/7 20:39,1.2,14,1.2,14,1.6,14
2012/1/7 20:40,1.2,14,1.2,14,1.9,14
2012/1/7 20:41,1.3,14,1.3,14,3.6,15
2012/1/7 20:42,1.3,14,1.4,14,4.2,15
2012/1/7 20:43,1.3,14,1.4,14,3.3,15
2012/1/7 20:44,1.1,14,1.3,14,1.4,9
2012/1/7 20:45,1,14,1.1,14,0.4,12
2012/1/7 20:46,1,14,1,14,1.5,12
2012/1/7 20:47,1,14,1,14,1.8,13
2012/1/7 20:48,1,13,1,14,0.6,10
2012/1/7 20:49,0.9,13,1,14,0.4,10
2012/1/7 20:50,0.8,12,0.9,14,0.1,8
2012/1/7 20:51,0.8,12,0.8,14,3,14
2012/1/7 20:52,0.7,12,0.8,14,3.1,14
2012/1/7 20:53,0.9,12,0.9,14,4.7,15
2012/1/7 20:54,0.9,13,0.9,14,3,15
2012/1/7 20:55,1.1,13,1.1,13,2.2,14
2012/1/7 20:56,1.2,13,1.2,13,2.7,15
2012/1/7 20:57,1.2,13,1.2,13,2,12
2012/1/7 20:58,1.3,13,1.3,13,2,11
2012/1/7 20:59,1.3,13,1.3,13,1.1,14
2012/1/7 21:00,1.4,13,1.4,13,1.8,14
2012/1/7 21:01,1.4,13,1.4,13,2,14
2012/1/7 21:02,1.4,13,1.4,13,2.7,12
2012/1/7 21:03,1.3,13,1.4,13,2.4,12
2012/1/7 21:04,1.4,12,1.4,13,2.4,11
2012/1/7 21:05,1.5,12,1.5,12,2.7,11
2012/1/7 21:06,1.6,12,1.6,12,3.2,11
2012/1/7 21:07,1.7,12,1.7,12,3.5,10
2012/1/7 21:08,1.8,12,1.8,12,2.4,12
2012/1/7 21:09,1.9,11,1.9,12,2.4,11
2012/1/7 21:10,1.9,12,1.9,12,2,14
2012/1/7 21:11,1.9,12,1.9,12,1.4,14
2012/1/7 21:12,1.8,12,1.9,12,1.9,15
2012/1/7 21:13,1.7,12,1.8,12,1.9,13
2012/1/7 21:14,1.7,12,1.7,12,2,14
2012/1/7 21:15,1.5,13,1.7,12,1.5,13
2012/1/7 21:16,1.4,13,1.5,12,1.6,12
2012/1/7 21:17,1.3,13,1.4,12,1.8,12
2012/1/7 21:18,1.3,13,1.3,12,1.5,12
2012/1/7 21:19,1.3,13,1.3,11,2.2,12
2012/1/7 21:20,1.3,13,1.3,12,2,12
2012/1/7 21:21,1.4,13,1.4,12,1.8,12
2012/1/7 21:22,1.3,13,1.4,12,2.1,14
2012/1/7 21:23,1.4,13,1.4,12,2.5,16
2012/1/7 21:24,1.5,13,1.5,12,2.2,14
2012/1/7 21:25,1.5,13,1.5,13,1.8,15
2012/1/7 21:26,1.5,14,1.5,13,1.6,15
2012/1/7 21:27,1.4,14,1.5,13,1.4,16
2012/1/7 21:28,1.4,14,1.4,13,1.8,16
2012/1/7 21:29,1.3,15,1.4,13,1.4,15
2012/1/7 21:30,1.3,15,1.3,13,1.9,15
2012/1/7 21:31,1.3,15,1.3,13,1.6,15
2012/1/7 21:32,1.2,15,1.3,13,1.4,15
2012/1/7 21:33,1.1,15,1.2,13,1,15
2012/1/7 21:34,1,15,1.1,13,1,15
2012/1/7 21:35,0.9,15,1,13,0.6,13
2012/1/7 21:36,0.8,15,0.9,14,1.3,16
2012/1/7 21:37,0.8,14,0.8,14,1,12
2012/1/7 21:38,0.7,14,0.8,14,0.8,12
2012/1/7 21:39,0.6,14,0.7,15,0.6,9
2012/1/7 21:40,0.6,13,0.6,15,1.1,6
2012/1/7 21:41,0.5,13,0.6,15,0.4,16
2012/1/7 21:42,0.4,13,0.5,15,0.3,1
2012/1/7 21:43,0.3,14,0.4,15,0.1,2
2012/1/7 21:44,0.3,16,0.3,15,0.4,4
2012/1/7 21:45,0.3,6,0.3,15,0.8,7
2012/1/7 21:46,0.3,5,0.3,15,0.8,1
2012/1/7 21:47,0.2,4,0.3,14,0.8,2
2012/1/7 21:48,0.2,4,0.2,14,0.1,2
2012/1/7 21:49,0.2,4,0.2,14,0,5
2012/1/7 21:50,0.1,3,0.2,13,0,14
2012/1/7 21:51,0.1,3,0.1,13,0,10
2012/1/7 21:52,0.1,4,0.1,13,0,12
2012/1/7 21:53,0.1,5,0.1,14,0.6,7
2012/1/7 21:54,0.2,6,0.2,1,0.8,7
2012/1/7 21:55,0.2,5,0.2,6,0.5,6
2012/1/7 21:56,0.2,6,0.2,5,0.8,6
2012/1/7 21:57,0.1,7,0.2,4,0.5,8
2012/1/7 21:58,0.2,7,0.2,4,1,6
2012/1/7 21:59,0.3,6,0.3,6,0.8,4
2012/1/7 22:00,0.3,5,0.3,6,0.8,3
2012/1/7 22:01,0.4,5,0.4,5,1,5
2012/1/7 22:02,0.5,5,0.5,5,1.1,5
2012/1/7 22:03,0.5,5,0.5,5,1,6
2012/1/7 22:04,0.5,5,0.5,5,0.9,4
2012/1/7 22:05,0.5,5,0.5,5,0.4,15
2012/1/7 22:06,0.5,4,0.5,5,0.1,13
2012/1/7 22:07,0.5,4,0.5,5,0,16
2012/1/7 22:08,0.4,3,0.5,5,0.1,4
2012/1/7 22:09,0.4,3,0.4,5,0.8,5
2012/1/7 22:10,0.4,4,0.4,5,1,6
2012/1/7 22:11,0.4,4,0.4,5,0.8,3
2012/1/7 22:12,0.3,3,0.4,5,0.4,2
2012/1/7 22:13,0.2,3,0.3,5,0.3,7
2012/1/7 22:14,0.2,3,0.2,5,1.1,8
2012/1/7 22:15,0.2,4,0.3,5,1.1,8
2012/1/7 22:16,0.2,4,0.2,4,0,10
2012/1/7 22:17,0.2,4,0.2,4,0.1,15
2012/1/7 22:18,0.3,4,0.3,3,0.9,16
2012/1/7 22:19,0.3,4,0.3,4,1.6,1
2012/1/7 22:20,0.3,3,0.3,4,0.8,3
2012/1/7 22:21,0.3,3,0.4,4,0.9,3
2012/1/7 22:22,0.4,3,0.4,3,1.5,4
2012/1/7 22:23,0.5,3,0.5,3,1.6,1
2012/1/7 22:24,0.6,3,0.6,3,1.6,3
2012/1/7 22:25,0.7,3,0.7,3,1.8,5
2012/1/7 22:26,0.8,3,0.8,3,1.6,4
2012/1/7 22:27,0.9,3,0.9,3,1.1,5
2012/1/7 22:28,0.9,3,0.9,3,1,3
2012/1/7 22:29,0.8,4,0.9,3,0.5,4
2012/1/7 22:30,0.8,3,0.8,3,0.5,16
2012/1/7 22:31,0.8,3,0.8,3,0.9,16
2012/1/7 22:32,0.7,3,0.8,3,1.1,1
2012/1/7 22:33,0.7,3,0.7,3,0.5,16
2012/1/7 22:34,0.5,2,0.6,3,0.5,16
2012/1/7 22:35,0.4,2,0.5,3,0.5,4
2012/1/7 22:36,0.3,2,0.4,3,0.4,3
2012/1/7 22:37,0.2,2,0.3,3,0.1,4
2012/1/7 22:38,0.2,1,0.2,3,0,14
2012/1/7 22:39,0.2,1,0.2,4,0,14
2012/1/7 22:40,0.2,16,0.2,3,0.1,12
2012/1/7 22:41,0.1,1,0.2,3,0.4,9
2012/1/7 22:42,0.1,1,0.1,3,0.6,9
2012/1/7 22:43,0.1,2,0.1,3,0.3,2
2012/1/7 22:44,0.1,5,0.1,2,0,2
2012/1/7 22:45,0,7,0.1,2,0.1,8
2012/1/7 22:46,0,6,0,2,0.1,3
2012/1/7 22:47,0,5,0,2,0,3
2012/1/7 22:48,0.1,6,0.1,1,1,8
2012/1/7 22:49,0.1,6,0.1,1,0.5,10
2012/1/7 22:50,0.1,6,0.1,16,0.5,8
2012/1/7 22:51,0.1,6,0.1,1,0.3,1
2012/1/7 22:52,0.1,6,0.1,2,0,8
2012/1/7 22:53,0.1,7,0.1,3,0.8,7
2012/1/7 22:54,0.1,7,0.1,5,1.1,8
2012/1/7 22:55,0.2,7,0.2,7,0.8,9
2012/1/7 22:56,0.2,8,0.2,7,0.9,10
2012/1/7 22:57,0.2,9,0.2,7,0.6,14
2012/1/7 22:58,0.3,10,0.3,10,1,13
2012/1/7 22:59,0.3,10,0.3,10,0.8,14
2012/1/7 23:00,0.3,11,0.3,10,0,12
2012/1/7 23:01,0.3,11,0.3,10,0.5,4
2012/1/7 23:02,0.3,11,0.3,10,0.5,4
2012/1/7 23:03,0.3,13,0.3,10,0.3,4
2012/1/7 23:04,0.3,14,0.3,10,0.4,13
2012/1/7 23:05,0.3,14,0.3,10,1.4,9
2012/1/7 23:06,0.3,13,0.3,10,1.9,8
2012/1/7 23:07,0.3,9,0.3,10,0.8,8
2012/1/7 23:08,0.3,7,0.3,10,0.9,8
2012/1/7 23:09,0.3,6,0.3,11,1.9,3
2012/1/7 23:10,0.5,5,0.5,5,1.8,3
2012/1/7 23:11,0.6,5,0.6,5,2.1,3
2012/1/7 23:12,0.7,4,0.7,5,2.1,3
2012/1/7 23:13,0.8,5,0.8,4,1.6,4
2012/1/7 23:14,0.9,5,0.9,5,1.3,5
2012/1/7 23:15,0.8,4,0.9,5,0.6,5
2012/1/7 23:16,0.8,4,0.8,5,0,4
2012/1/7 23:17,0.8,4,0.8,5,0.3,12
2012/1/7 23:18,0.8,4,0.8,5,0.4,11
2012/1/7 23:19,0.7,3,0.8,5,0.5,16
2012/1/7 23:20,0.6,3,0.7,5,1.4,1
2012/1/7 23:21,0.5,2,0.6,5,1,1
2012/1/7 23:22,0.5,2,0.5,5,1,2
2012/1/7 23:23,0.4,2,0.5,5,0.8,2
2012/1/7 23:24,0.3,1,0.4,5,0,1
2012/1/7 23:25,0.3,1,0.3,4,0,1
2012/1/7 23:26,0.3,16,0.3,4,0.1,15
2012/1/7 23:27,0.3,1,0.3,4,0.3,15
2012/1/7 23:28,0.3,1,0.3,4,0.9,13
2012/1/7 23:29,0.4,16,0.4,3,1,13
2012/1/7 23:30,0.4,16,0.4,3,1.1,13
2012/1/7 23:31,0.4,15,0.4,2,0.9,12
2012/1/7 23:32,0.3,14,0.4,2,0.4,12
2012/1/7 23:33,0.3,14,0.3,1,0.4,1
2012/1/7 23:34,0.3,14,0.3,16,0.6,2
2012/1/7 23:35,0.4,14,0.4,16,0.9,16
2012/1/7 23:36,0.5,14,0.5,14,1.3,16
2012/1/7 23:37,0.6,14,0.6,14,1.4,15
2012/1/7 23:38,0.6,15,0.6,14,1.1,15
2012/1/7 23:39,0.5,15,0.6,14,0.8,16
2012/1/7 23:40,0.4,16,0.5,14,0.4,15
2012/1/7 23:41,0.4,16,0.4,14,0.8,15
2012/1/7 23:42,0.4,16,0.4,14,0.8,15
2012/1/7 23:43,0.4,16,0.5,14,0.5,16
2012/1/7 23:44,0.4,15,0.4,14,0,14
2012/1/7 23:45,0.4,15,0.4,14,0.1,11
2012/1/7 23:46,0.3,15,0.3,14,0,11
2012/1/7 23:47,0.2,14,0.3,14,0,14
2012/1/7 23:48,0.1,15,0.2,15,0.4,1
2012/1/7 23:49,0.2,15,0.2,15,1,2
2012/1/7 23:50,0.2,15,0.2,16,0.9,2
2012/1/7 23:51,0.3,15,0.3,16,0.9,2
2012/1/7 23:52,0.3,16,0.3,16,0.8,2
2012/1/7 23:53,0.3,16,0.3,16,0.3,2
2012/1/7 23:54,0.3,1,0.3,15,0,3
2012/1/7 23:55,0.3,1,0.3,15,0.8,13
2012/1/7 23:56,0.4,1,0.4,1,0.9,11
2012/1/7 23:57,0.4,1,0.4,1,1.3,10
2012/1/7 23:58,0.4,2,0.5,2,0.8,8
2012/1/7 23:59,0.4,1,0.4,2,0,2
2012/1/8 0:00,0.3,1,0.4,2,0.3,15
